Location: Launay
(47.2429°N, 1.5727°E)
Time: 19:59:38
(UTC+00:00)

Cosmos 1782 - Pass Details

Date: 19 May 2025
Orbit: 478 x 490 km, 82.5° (Epoch: 21 June)

Event Time Altitude Azimuth Distance (km) Brightness Sun altitude
Rises 20:20:52 0° 197° (SSW) 2,557 6.0 -8.0°
Reaches altitude 10° 20:22:59 10° 202° (SSW) 1,679 5.1 -8.3°
Maximum altitude 20:26:36 56° 281° (WNW) 588 3.3 -8.7°
Drops below altitude 10° 20:30:15 10° 1° (N) 1,688 5.9 -9.2°
Sets 20:32:24 0° 6° (N) 2,572 6.8 -9.4°
